Powrót do katalogu

STARLINK-5535

AktywnyŁącznośćSSO
NORAD 56356·PAYLOAD·🇺🇸 United States

Wystrzelony Apr 27, 2023 z Vandenberg Space Force Base

Loading…

Następne Przeloty (najbliższe 24 godziny)

TLE

ŚwieżeSource: CelesTrak SupGP

Epoka: Sep 15, 2026, 02:49 UTC

1 56356C 23058AR  26258.11784722 -.00075253  00000+0 -23361-2 0  2586
2 56356  97.2845 254.9110 0001448  90.2786  52.8937 15.33475696    17

Śledź STARLINK-5535 w czasie rzeczywistym z AllMySat

Download on the App Store